Grand Marais, MN

12:17 AM CST on November 20, 2019 (GMT -0600)
Grand Marais

Weather History for KGNA - September, 2019

Change the Weather History Date:

Tuesday, September 24, 2019

  Actual Average (WUND) Record (WUND)
Temperature  
Mean Temperature 52 °F -  
Max Temperature 60 °F - - (-1)
Min Temperature 46 °F - - (-1)
Degree Days  
Heating Degree Days 12    
Growing Degree Days 2 (Base 50)    
Moisture  
Dew Point 52 °F    
Average Humidity 92    
Maximum Humidity 97    
Minimum Humidity 84    
Precipitation  
Precipitation 0.00 in - - ()
Sea Level Pressure  
Sea Level Pressure 29.67 in    
Wind  
Wind Speed 1 mph (East)    
Max Wind Speed 4 mph    
Max Gust Speed -    
Averages and records for this station are not official NWS values.
T = Trace of Precipitation, MM = Missing Value Source: NWS Daily Summary

Daily Weather History Graph

Daily Weather History Graph

Search for Another Location

Airport or City:

Astronomy

Sep. 24, 2019 Rise Set
Actual Time 6:50 AM CDT 6:55 PM CDT
Civil Twilight 6:19 AM CDT 7:26 PM CDT
Nautical Twilight 5:43 AM CDT 8:02 PM CDT
Astronomical Twilight 5:06 AM CDT 8:39 PM CDT
Moon 1:08 AM CDT (9/24) 5:05 PM CDT (9/24)
Length of Visible Light 13h 06m
Length of Day
12h 04m
Waning Crescent, 23% of the Moon is Illuminated
Sep 24
Waning Crescent
Sep 28
New
Oct 5
First Quarter
Oct 13
Full
Oct 21
Last Quarter

Hourly Weather History & Observations

Time (CDT) Temp. Dew Point Humidity Pressure Visibility Wind Dir Wind Speed Gust Speed Precip Events Conditions
12:56 AM 48.9 °F 46.9 °F 93% 29.84 in - Calm Calm - N/A   Unknown
1:56 AM 48.0 °F 46.9 °F 96% 29.83 in - Calm Calm - N/A   Unknown
2:56 AM 48.0 °F 46.9 °F 96% 29.82 in - Calm Calm - N/A   Unknown
3:56 AM 48.0 °F 46.0 °F 93% 29.81 in - Calm Calm - N/A   Unknown
5:56 AM 46.9 °F 46.0 °F 97% 29.80 in - NNW 3.5 mph - N/A   Unknown
6:56 AM 46.9 °F 45.0 °F 93% 29.79 in - Calm Calm - N/A   Unknown
7:56 AM 50.0 °F 48.9 °F 96% 29.77 in - Calm Calm - N/A   Unknown
8:56 AM 55.9 °F 53.1 °F 90% 29.76 in - ESE 3.5 mph - N/A   Unknown
9:56 AM 55.9 °F 54.0 °F 93% 29.75 in - East 3.5 mph - N/A   Unknown
10:56 AM 57.9 °F 55.0 °F 90% 29.73 in - Calm Calm - N/A   Unknown
11:56 AM 57.9 °F 53.1 °F 84% 29.70 in - SSE 3.5 mph - N/A   Unknown
12:56 PM 57.9 °F 54.0 °F 87% 29.67 in - Calm Calm - N/A   Unknown
2:56 PM 57.9 °F 54.0 °F 87% 29.62 in - Calm Calm - N/A   Unknown
3:56 PM 57.9 °F 54.0 °F 87% 29.60 in - Calm Calm - N/A   Unknown
4:56 PM 57.9 °F 54.0 °F 87% 29.59 in - Calm Calm - N/A   Unknown
5:56 PM 59.0 °F 55.0 °F 87% 29.58 in - Calm Calm - N/A   Unknown
6:56 PM 57.9 °F 54.0 °F 87% 29.55 in - Calm Calm - N/A   Unknown
7:56 PM 59.0 °F 57.0 °F 93% 29.52 in - Calm Calm - N/A   Unknown
9:56 PM 57.9 °F 55.9 °F 93% 29.47 in - Calm Calm - N/A   Unknown
10:56 PM 57.0 °F 55.9 °F 96% 29.48 in - Calm Calm - N/A   Unknown
11:56 PM 55.9 °F 55.0 °F 97% 29.46 in - NE 3.5 mph - N/A   Unknown